SCP
0 0 0 0 0 0 0 0 0 0 0 0 0 0 -0 -0 -0 -0 -0 -0 -0 -0 -0 -0 -0 -0 -0 -0 -0 0 -0 0 0 0 0 0 0 0 0 0 0 0 0 0
0 0 0 0 0 0 0 0 0 0 0 0 0 0 0 0 -0 -0 -0 -0 -0 -0 -0 -0 -0 -0 -0 -0 -0 -0 -0 0 0 0 0 0 0 0 0 0 0 0 0 -0
0 0 0 0 0 0 0 0 0 0 0 0 0 0 0 -0 -0 -0 -0 -0 -0 -0 -0 -0 -0 -0 -0 -0 -0 -0 -0 0 0 0 0 0 0 0 0 0 0 0 0 0
0 0 0 0 0 0 0 0 0 0 0 0 0 0 0 -0 -0 -0 -0 -0 -0 -0 -0 -0 -0 -0 -0 -0 -0 -0 -0 0 0 0 0 0 0 0 0 0 0 0 0 0
0 0 0 0 0 0 0 0 0 0 0 0 0 0 0 0 -0 -0 -0 -0 -0 -0 -0 -0 -0 -0 -0 -0 -0 -0 -0 -0 0 0 0 0 0 0 0 0 0 0 0 0
0 0 0 0 0 0 0 0 0 0 0 0 0 0 0 -0 -0 -0 -0 -0 -0 -0 0 -0 -0 -0 -0 -0 -0 -0 -0 -0 0 0 0 0 0 0 0 0 0 0 0 0
0 0 0 0 0 0 0 0 0 0 0 0 0 0 0 0 0 -0 -0 -0 -0 0 -0 -0 -0 -0 -0 -0 -0 -0 -0 -0 -0 0 0 0 0 0 0 0 0 0 0 0
0 0 0 0 0 0 0 0 0 0 0 0 0 0 0 0 0 0 -0 -0 -0 0 0 -0 -0 -0 -0 -0 -0 -0 -0 -0 -0 -0 0 0 0 0 0 0 0 0 0 0
0 0 0 0 0 0 0 0 0 0 0 0 0 0 0 0 0 0 0 -0 -0 -0 0 0 -0 -0 -0 -0 -0 -0 -0 -0 -0 -0 -0 -0 -0 0 0 0 0 0 0 0
0 0 0 0 0 0 0 0 0 0 0 0 0 0 0 0 0 0 0 -0 -0 0 0 0 -0 -0 -0 -0 -0 -0 0 0 0 -0 0 0 0 0 0 0 0 0 0 0
0 0 0 0 0 0 0 0 0 0 0 0 0 0 0 0 0 0 0 -0 -0 0 0 0 0 -0 -0 0 -0 -0 0 0 0 0 -0 0 0 0 0 0 0 0 0 0
0 0 0 0 0 0 0 0 0 0 0 0 0 0 0 0 0 0 0 0 0 0 0 0 0 0 -0 0 0 0 0 0 0 0 0 0 0 0 0 0 0 -0 -0 -0
0 0 0 0 0 0 0 0 0 0 0 0 0 0 0 0 0 0 0 0 0 0 0 0 0 0 0 0 0 0 0 0 0 0 0 0 0 0 0 0 0 0 -0 -0
-0 0 0 0 0 0 0 0 0 0 0 0 0 0 0 0 0 0 0 0 0 0 0 0 0 0 0 0 0 0 0 0 0 0 0 0 0 0 0 0 0 0 -0 -0
-0 -0 0 0 0 0 0 0 0 0 0 0 0 0 0 0 0 0 0 0 0 0 0 0 0 0 0 0 0 0 0 0 0 0 0 0 0 0 0 0 0 0 0 0
-0 -0 -0 0 0 0 0 0 0 0 0 0 0 0 0 0 0 0 0 0 0 0 0 0 0 0 0 0 0 0 0 0 0 0 0 0 0 0 0 0 0 0 0 0
0 -0 -0 0 0 0 0 0 0 0 0 0 0 0 0 0 0 0 0 0 0 0 0 0 0 0 0 0 0 0 0 0 0 0 0 0 0 0 0 0 0 0 0 0
0 0 -0 -0 0 0 0 0 0 0 0 0 0 0 0 0 0 0 0 0 0 0 0 0 0 0 0 0 0 0 0 0 0 0 0 0 0 0 0 0 0 0 0 0
0 0 0 -0 0 0 0 0 0 0 0 0 0 0 0 0 0 0 0 0 1 1 0 0 0 0 0 0 0 0 0 0 0 0 0 0 0 0 0 0 0 0 0 0
0 0 0 0 0 0 0 0 0 0 0 0 0 0 0 0 0 0 0 0 0 1 0 0 0 0 0 0 0 0 0 0 0 0 0 0 0 0 0 0 0 0 0 0
0 0 0 0 0 0 0 0 0 0 0 0 0 0 0 0 0 0 0 0 0 0 0 0 0 0 0 0 0 0 0 0 0 0 0 0 0 0 0 0 0 0 0 0
0 0 0 0 0 0 0 0 0 0 0 0 -0 0 -0 0 0 0 0 0 0 0 0 0 0 0 0 0 0 0 0 0 0 0 0 0 0 0 0 0 0 0 0 0
0 0 0 0 0 0 0 0 0 0 0 0 -0 0 -0 0 0 0 0 0 0 0 0 0 0 0 0 0 0 0 0 0 0 0 0 0 0 0 0 0 0 0 0 0
-0 0 0 0 0 0 0 0 0 0 0 0 0 0 0 0 0 0 0 0 0 0 0 0 0 0 0 0 0 0 0 0 0 0 0 0 0 0 0 0 0 0 0 0
-0 -0 -0 0 0 0 0 0 0 0 0 0 0 0 0 0 0 0 0 0 0 0 0 0 0 0 0 0 0 0 0 0 0 0 0 0 0 0 0 0 0 0 0 0
0 0 -0 -0 0 0 0 0 0 0 0 0 0 0 0 0 0 0 0 0 0 0 0 0 0 0 0 0 0 0 0 0 0 0 0 0 0 0 0 0 0 0 0 0
0 -0 0 0 -0 0 0 0 0 0 0 0 0 0 0 0 0 0 0 0 0 0 0 0 0 0 0 0 0 0 0 0 0 0 0 0 0 0 0 0 0 0 0 0
Wind_Speed_500mb
58 37 8 10 36 41 25 26 26 15 21 20 29 29 42 66 62 64 73 77 75 72 64 54 51 41 34 30 36 31 26 15 14 21 21 18 23 29 33 33 28 31 33 34
45 60 50 36 19 45 37 15 18 25 16 19 44 51 37 54 63 66 77 81 77 73 68 60 56 47 42 33 38 37 32 18 18 25 24 22 24 27 31 28 26 27 27 25
41 31 39 40 43 23 35 31 25 22 14 17 15 32 42 52 69 73 79 84 83 79 75 64 59 50 49 41 41 41 34 24 22 30 25 23 27 27 25 23 22 23 30 29
12 18 24 19 21 27 41 37 26 12 18 25 29 57 71 86 85 76 83 87 84 81 77 65 58 54 48 48 45 46 38 29 25 35 31 27 27 24 20 18 17 25 30 32
7 31 10 18 12 18 21 18 21 34 22 23 45 37 28 83 95 88 81 84 85 79 74 68 64 59 56 57 50 50 42 35 28 42 39 33 33 26 24 21 20 23 28 33
8 12 20 14 9 19 12 22 21 22 26 21 26 19 10 85 98 92 85 79 86 85 79 71 70 67 64 62 59 56 43 36 30 42 41 35 39 30 28 23 24 28 28 29
10 9 9 19 14 13 26 15 12 40 38 30 20 28 47 81 97 97 92 84 84 86 83 76 75 74 69 67 66 53 41 37 39 32 42 38 39 37 32 28 24 30 32 33
7 9 8 55 13 12 12 50 42 60 66 62 73 61 55 76 96 98 94 91 86 89 87 81 77 79 75 70 62 53 45 42 46 37 39 38 38 37 34 39 33 31 30 36
9 1 12 29 29 36 39 22 47 30 77 76 65 61 56 55 86 96 94 91 91 91 90 85 83 81 73 67 63 58 52 47 51 46 42 42 41 38 39 36 46 39 36 32
13 6 31 9 50 55 74 68 63 40 32 80 72 69 62 49 49 76 93 91 94 91 91 88 87 84 65 63 63 60 57 54 54 56 51 50 46 42 40 42 46 51 42 40
10 19 42 29 64 66 78 77 77 67 55 40 74 69 67 59 60 69 87 92 94 93 89 87 88 87 74 65 69 65 63 59 61 61 56 53 50 45 43 40 42 52 52 43
5 31 21 37 62 66 73 71 71 71 59 33 17 73 75 70 66 75 93 93 94 90 84 86 86 82 73 69 72 67 68 67 68 68 65 60 55 52 46 34 31 38 42 43
7 38 52 61 53 60 67 72 74 60 55 50 14 36 64 70 70 74 90 95 91 84 80 80 78 84 76 72 73 73 71 72 73 70 72 67 63 55 50 47 42 38 44 47
28 30 42 30 41 62 63 67 65 54 48 48 40 11 41 68 75 82 90 90 81 80 86 79 82 81 75 75 74 74 76 72 76 73 75 72 66 58 51 49 49 50 48 54
31 28 49 46 44 51 50 56 60 65 60 50 56 37 21 20 55 83 87 86 84 87 81 81 78 74 73 73 74 76 79 80 80 78 74 73 69 64 57 50 50 47 53 53
37 37 32 34 39 39 40 36 54 64 51 54 52 49 34 17 3 37 68 82 89 90 80 71 69 62 63 68 72 73 75 79 84 82 79 77 75 71 64 58 54 54 56 55
41 30 35 27 34 35 33 32 42 46 37 40 54 41 30 21 10 15 27 40 76 78 73 65 59 53 61 63 70 70 71 79 86 86 80 79 79 75 68 63 58 56 56 56
48 34 29 29 26 22 34 24 33 33 43 47 37 44 25 27 29 7 20 24 65 74 72 67 68 67 63 64 68 74 73 72 80 86 83 78 78 76 72 66 62 59 53 50
39 25 31 26 28 32 36 27 19 25 33 41 39 46 25 7 16 19 61 101 55 57 52 50 48 44 48 71 75 77 76 72 75 83 84 81 82 80 76 72 69 65 61 64
40 22 15 13 34 39 30 21 16 31 39 28 31 34 31 25 29 30 61 88 37 36 37 30 20 22 28 39 68 81 78 72 67 76 87 87 87 87 82 77 74 74 68 68
40 35 25 24 14 50 44 34 34 39 32 29 28 27 37 46 24 62 79 77 40 34 34 36 31 22 22 26 47 66 72 77 69 69 72 77 81 83 83 78 74 75 80 76
42 41 31 34 31 21 16 26 35 37 26 30 20 18 31 38 30 40 58 73 43 49 47 39 32 24 20 25 22 35 52 65 66 65 60 58 61 71 77 80 80 75 71 76
42 40 44 43 40 37 31 24 23 16 25 38 37 45 28 34 42 40 59 34 40 53 51 46 41 29 23 20 26 42 40 40 48 59 65 64 62 61 66 67 75 73 77 71
50 19 32 38 37 41 49 47 38 42 52 55 40 41 35 43 50 50 51 44 48 52 56 54 47 43 31 27 30 32 33 40 47 49 52 43 49 58 61 62 66 64 67 69
39 49 27 10 26 42 54 57 49 45 44 43 43 40 60 46 47 44 43 44 47 51 49 48 45 37 29 25 29 27 23 21 20 20 25 36 48 50 41 39 47 56 54 57
64 52 49 32 13 8 29 37 43 44 52 48 35 49 55 50 44 53 41 30 36 39 45 48 49 45 28 27 29 25 21 17 14 15 17 22 25 27 31 34 39 44 48 51
58 65 65 54 32 30 10 21 21 33 54 58 37 39 40 45 54 51 41 42 47 49 47 46 42 41 39 37 30 18 10 6 6 7 9 11 12 14 18 23 30 37 38 40
Wind_Direction_500mb
222 243 251 201 212 198 180 185 180 195 182 195 183 181 182 176 170 170 176 181 184 187 189 193 193 192 190 184 191 192 190 182 161 134 122 109 100 100 119 127 127 139 143 148
219 227 238 248 253 206 202 180 142 174 207 184 188 192 158 171 168 176 181 187 191 193 192 194 196 192 189 183 192 195 192 187 158 152 133 118 119 106 117 124 114 134 147 148
223 214 231 239 236 220 193 185 149 177 197 154 149 178 181 174 178 183 185 192 195 196 196 194 197 193 190 186 191 193 194 188 168 161 158 140 136 124 120 112 110 120 142 151
244 195 229 236 201 206 205 186 180 157 170 171 181 187 191 186 185 190 191 195 200 199 198 198 197 194 189 188 193 192 193 189 175 170 174 159 155 152 139 114 119 119 128 149
233 200 248 225 204 182 174 219 180 181 194 181 187 154 183 193 194 194 196 200 202 202 201 198 195 193 189 190 193 194 192 190 185 181 182 178 175 167 155 141 134 134 128 137
324 148 217 206 168 185 122 223 186 171 186 193 138 172 220 196 200 201 198 201 204 204 201 199 194 192 190 192 195 197 197 192 193 189 188 189 185 180 168 162 148 152 146 141
235 281 276 356 273 96 177 232 180 187 191 182 192 196 201 191 198 204 202 204 206 206 202 199 195 193 194 195 198 202 199 193 194 187 190 190 184 192 193 184 171 165 162 162
209 222 134 351 335 88 284 301 261 196 194 194 206 207 200 195 200 204 206 204 207 207 204 200 197 195 196 199 200 199 196 192 199 190 184 190 193 192 196 202 198 180 175 177
354 251 309 23 36 342 4 352 356 270 201 195 193 193 188 176 201 203 202 205 206 207 204 202 199 199 200 202 197 195 195 192 198 198 194 194 197 198 200 200 199 195 192 188
317 312 336 321 2 354 12 7 353 7 244 198 191 187 189 190 190 197 202 201 203 204 205 202 201 203 206 202 196 195 197 197 201 202 201 202 205 206 206 204 203 204 207 207
274 331 336 12 354 356 357 358 5 12 22 216 199 191 192 187 184 187 193 199 201 203 204 206 202 204 204 203 197 196 199 200 205 208 207 206 212 211 214 218 215 209 212 213
288 310 301 300 330 355 356 353 3 5 12 16 240 193 191 186 190 190 193 195 196 200 204 207 205 205 204 203 202 199 197 202 206 210 210 211 211 215 218 222 223 226 227 225
215 303 296 292 314 340 352 354 11 8 12 11 336 215 197 192 193 195 194 194 194 198 203 206 204 205 204 204 205 206 204 202 207 212 213 213 214 217 217 215 219 221 221 221
255 287 301 301 316 331 346 357 12 12 13 22 22 160 206 194 191 192 188 190 196 198 203 204 207 207 206 206 208 210 212 208 207 212 216 217 218 221 222 220 217 211 209 210
234 257 286 298 306 331 341 355 1 7 11 19 33 57 115 169 186 189 191 194 197 198 200 202 207 210 208 208 211 213 215 213 213 215 218 221 222 223 226 226 226 223 210 208
306 245 261 303 307 312 332 345 354 357 4 10 17 39 54 84 112 166 186 189 195 199 198 196 202 211 210 210 212 215 218 219 217 217 221 222 223 225 226 229 230 228 222 218
318 218 227 264 307 292 315 328 340 355 12 359 8 27 44 63 39 54 127 200 196 191 191 199 205 208 214 214 214 216 215 219 222 221 223 226 225 227 230 232 233 232 233 228
338 287 270 275 292 270 297 311 324 339 356 354 6 29 59 56 43 327 94 310 206 193 200 209 212 212 218 221 222 220 217 218 220 224 226 226 229 230 231 234 237 238 238 237
340 347 267 230 254 238 261 287 293 331 325 339 345 9 29 199 280 278 285 315 167 166 166 182 192 196 213 225 226 224 224 223 222 223 227 232 233 236 237 236 238 241 245 243
327 329 323 304 249 251 243 250 264 261 285 308 348 356 342 321 314 294 292 313 200 192 179 176 198 207 209 219 224 225 225 226 226 225 228 231 234 237 239 242 244 244 245 248
332 319 298 307 353 237 242 242 245 272 279 299 302 340 338 321 315 311 306 315 208 201 214 217 204 178 179 196 221 228 230 228 230 231 233 238 238 238 238 240 243 244 243 247
327 310 290 273 269 251 203 223 237 244 292 288 290 314 319 302 313 320 292 261 205 197 193 199 212 224 239 217 207 213 223 230 234 236 237 240 241 241 239 240 242 242 246 248
329 303 284 273 267 262 253 237 212 213 212 248 255 268 282 307 288 292 272 245 198 187 194 198 206 212 217 227 216 219 215 207 211 222 229 237 243 247 243 241 245 247 244 250
4 327 282 268 262 259 254 248 241 237 245 257 267 242 256 270 283 287 259 239 203 192 193 200 210 211 205 213 223 224 218 218 227 231 230 226 234 238 244 243 242 243 243 250
8 13 16 282 265 259 250 243 240 244 242 250 252 235 242 254 231 236 226 210 211 207 203 208 209 212 207 208 214 214 233 233 235 244 241 233 231 229 226 226 232 239 252 253
23 19 22 32 58 246 226 225 231 229 216 225 229 219 217 229 235 223 215 215 201 209 215 211 222 221 197 180 175 172 180 181 192 206 219 223 230 241 249 254 255 256 251 248
25 25 21 23 40 63 136 107 122 200 207 205 204 195 187 202 199 200 207 195 180 178 180 175 175 181 185 179 182 187 181 149 151 169 189 205 217 230 239 245 247 245 244 244
Wind_Speed_850mb
58 37 8 10 36 41 25 26 26 15 21 20 29 29 42 66 62 64 73 77 75 72 64 54 51 41 34 30 36 31 26 15 14 21 21 18 23 29 33 33 28 31 33 34
45 60 50 36 19 45 37 15 18 25 16 19 44 51 37 54 63 66 77 81 77 73 68 60 56 47 42 33 38 37 32 18 18 25 24 22 24 27 31 28 26 27 27 25
41 31 39 40 43 23 35 31 25 22 14 17 15 32 42 52 69 73 79 84 83 79 75 64 59 50 49 41 41 41 34 24 22 30 25 23 27 27 25 23 22 23 30 29
12 18 24 19 21 27 41 37 26 12 18 25 29 57 71 86 85 76 83 87 84 81 77 65 58 54 48 48 45 46 38 29 25 35 31 27 27 24 20 18 17 25 30 32
7 31 10 18 12 18 21 18 21 34 22 23 45 37 28 83 95 88 81 84 85 79 74 68 64 59 56 57 50 50 42 35 28 42 39 33 33 26 24 21 20 23 28 33
8 12 20 14 9 19 12 22 21 22 26 21 26 19 10 85 98 92 85 79 86 85 79 71 70 67 64 62 59 56 43 36 30 42 41 35 39 30 28 23 24 28 28 29
10 9 9 19 14 13 26 15 12 40 38 30 20 28 47 81 97 97 92 84 84 86 83 76 75 74 69 67 66 53 41 37 39 32 42 38 39 37 32 28 24 30 32 33
7 9 8 55 13 12 12 50 42 60 66 62 73 61 55 76 96 98 94 91 86 89 87 81 77 79 75 70 62 53 45 42 46 37 39 38 38 37 34 39 33 31 30 36
9 1 12 29 29 36 39 22 47 30 77 76 65 61 56 55 86 96 94 91 91 91 90 85 83 81 73 67 63 58 52 47 51 46 42 42 41 38 39 36 46 39 36 32
13 6 31 9 50 55 74 68 63 40 32 80 72 69 62 49 49 76 93 91 94 91 91 88 87 84 65 63 63 60 57 54 54 56 51 50 46 42 40 42 46 51 42 40
10 19 42 29 64 66 78 77 77 67 55 40 74 69 67 59 60 69 87 92 94 93 89 87 88 87 74 65 69 65 63 59 61 61 56 53 50 45 43 40 42 52 52 43
5 31 21 37 62 66 73 71 71 71 59 33 17 73 75 70 66 75 93 93 94 90 84 86 86 82 73 69 72 67 68 67 68 68 65 60 55 52 46 34 31 38 42 43
7 38 52 61 53 60 67 72 74 60 55 50 14 36 64 70 70 74 90 95 91 84 80 80 78 84 76 72 73 73 71 72 73 70 72 67 63 55 50 47 42 38 44 47
28 30 42 30 41 62 63 67 65 54 48 48 40 11 41 68 75 82 90 90 81 80 86 79 82 81 75 75 74 74 76 72 76 73 75 72 66 58 51 49 49 50 48 54
31 28 49 46 44 51 50 56 60 65 60 50 56 37 21 20 55 83 87 86 84 87 81 81 78 74 73 73 74 76 79 80 80 78 74 73 69 64 57 50 50 47 53 53
37 37 32 34 39 39 40 36 54 64 51 54 52 49 34 17 3 37 68 82 89 90 80 71 69 62 63 68 72 73 75 79 84 82 79 77 75 71 64 58 54 54 56 55
41 30 35 27 34 35 33 32 42 46 37 40 54 41 30 21 10 15 27 40 76 78 73 65 59 53 61 63 70 70 71 79 86 86 80 79 79 75 68 63 58 56 56 56
48 34 29 29 26 22 34 24 33 33 43 47 37 44 25 27 29 7 20 24 65 74 72 67 68 67 63 64 68 74 73 72 80 86 83 78 78 76 72 66 62 59 53 50
39 25 31 26 28 32 36 27 19 25 33 41 39 46 25 7 16 19 61 101 55 57 52 50 48 44 48 71 75 77 76 72 75 83 84 81 82 80 76 72 69 65 61 64
40 22 15 13 34 39 30 21 16 31 39 28 31 34 31 25 29 30 61 88 37 36 37 30 20 22 28 39 68 81 78 72 67 76 87 87 87 87 82 77 74 74 68 68
40 35 25 24 14 50 44 34 34 39 32 29 28 27 37 46 24 62 79 77 40 34 34 36 31 22 22 26 47 66 72 77 69 69 72 77 81 83 83 78 74 75 80 76
42 41 31 34 31 21 16 26 35 37 26 30 20 18 31 38 30 40 58 73 43 49 47 39 32 24 20 25 22 35 52 65 66 65 60 58 61 71 77 80 80 75 71 76
42 40 44 43 40 37 31 24 23 16 25 38 37 45 28 34 42 40 59 34 40 53 51 46 41 29 23 20 26 42 40 40 48 59 65 64 62 61 66 67 75 73 77 71
50 19 32 38 37 41 49 47 38 42 52 55 40 41 35 43 50 50 51 44 48 52 56 54 47 43 31 27 30 32 33 40 47 49 52 43 49 58 61 62 66 64 67 69
39 49 27 10 26 42 54 57 49 45 44 43 43 40 60 46 47 44 43 44 47 51 49 48 45 37 29 25 29 27 23 21 20 20 25 36 48 50 41 39 47 56 54 57
64 52 49 32 13 8 29 37 43 44 52 48 35 49 55 50 44 53 41 30 36 39 45 48 49 45 28 27 29 25 21 17 14 15 17 22 25 27 31 34 39 44 48 51
58 65 65 54 32 30 10 21 21 33 54 58 37 39 40 45 54 51 41 42 47 49 47 46 42 41 39 37 30 18 10 6 6 7 9 11 12 14 18 23 30 37 38 40
Wind_Direction_850mb
222 243 251 201 212 198 180 185 180 195 182 195 183 181 182 176 170 170 176 181 184 187 189 193 193 192 190 184 191 192 190 182 161 134 122 109 100 100 119 127 127 139 143 148
219 227 238 248 253 206 202 180 142 174 207 184 188 192 158 171 168 176 181 187 191 193 192 194 196 192 189 183 192 195 192 187 158 152 133 118 119 106 117 124 114 134 147 148
223 214 231 239 236 220 193 185 149 177 197 154 149 178 181 174 178 183 185 192 195 196 196 194 197 193 190 186 191 193 194 188 168 161 158 140 136 124 120 112 110 120 142 151
244 195 229 236 201 206 205 186 180 157 170 171 181 187 191 186 185 190 191 195 200 199 198 198 197 194 189 188 193 192 193 189 175 170 174 159 155 152 139 114 119 119 128 149
233 200 248 225 204 182 174 219 180 181 194 181 187 154 183 193 194 194 196 200 202 202 201 198 195 193 189 190 193 194 192 190 185 181 182 178 175 167 155 141 134 134 128 137
324 148 217 206 168 185 122 223 186 171 186 193 138 172 220 196 200 201 198 201 204 204 201 199 194 192 190 192 195 197 197 192 193 189 188 189 185 180 168 162 148 152 146 141
235 281 276 356 273 96 177 232 180 187 191 182 192 196 201 191 198 204 202 204 206 206 202 199 195 193 194 195 198 202 199 193 194 187 190 190 184 192 193 184 171 165 162 162
209 222 134 351 335 88 284 301 261 196 194 194 206 207 200 195 200 204 206 204 207 207 204 200 197 195 196 199 200 199 196 192 199 190 184 190 193 192 196 202 198 180 175 177
354 251 309 23 36 342 4 352 356 270 201 195 193 193 188 176 201 203 202 205 206 207 204 202 199 199 200 202 197 195 195 192 198 198 194 194 197 198 200 200 199 195 192 188
317 312 336 321 2 354 12 7 353 7 244 198 191 187 189 190 190 197 202 201 203 204 205 202 201 203 206 202 196 195 197 197 201 202 201 202 205 206 206 204 203 204 207 207
274 331 336 12 354 356 357 358 5 12 22 216 199 191 192 187 184 187 193 199 201 203 204 206 202 204 204 203 197 196 199 200 205 208 207 206 212 211 214 218 215 209 212 213
288 310 301 300 330 355 356 353 3 5 12 16 240 193 191 186 190 190 193 195 196 200 204 207 205 205 204 203 202 199 197 202 206 210 210 211 211 215 218 222 223 226 227 225
215 303 296 292 314 340 352 354 11 8 12 11 336 215 197 192 193 195 194 194 194 198 203 206 204 205 204 204 205 206 204 202 207 212 213 213 214 217 217 215 219 221 221 221
255 287 301 301 316 331 346 357 12 12 13 22 22 160 206 194 191 192 188 190 196 198 203 204 207 207 206 206 208 210 212 208 207 212 216 217 218 221 222 220 217 211 209 210
234 257 286 298 306 331 341 355 1 7 11 19 33 57 115 169 186 189 191 194 197 198 200 202 207 210 208 208 211 213 215 213 213 215 218 221 222 223 226 226 226 223 210 208
306 245 261 303 307 312 332 345 354 357 4 10 17 39 54 84 112 166 186 189 195 199 198 196 202 211 210 210 212 215 218 219 217 217 221 222 223 225 226 229 230 228 222 218
318 218 227 264 307 292 315 328 340 355 12 359 8 27 44 63 39 54 127 200 196 191 191 199 205 208 214 214 214 216 215 219 222 221 223 226 225 227 230 232 233 232 233 228
338 287 270 275 292 270 297 311 324 339 356 354 6 29 59 56 43 327 94 310 206 193 200 209 212 212 218 221 222 220 217 218 220 224 226 226 229 230 231 234 237 238 238 237
340 347 267 230 254 238 261 287 293 331 325 339 345 9 29 199 280 278 285 315 167 166 166 182 192 196 213 225 226 224 224 223 222 223 227 232 233 236 237 236 238 241 245 243
327 329 323 304 249 251 243 250 264 261 285 308 348 356 342 321 314 294 292 313 200 192 179 176 198 207 209 219 224 225 225 226 226 225 228 231 234 237 239 242 244 244 245 248
332 319 298 307 353 237 242 242 245 272 279 299 302 340 338 321 315 311 306 315 208 201 214 217 204 178 179 196 221 228 230 228 230 231 233 238 238 238 238 240 243 244 243 247
327 310 290 273 269 251 203 223 237 244 292 288 290 314 319 302 313 320 292 261 205 197 193 199 212 224 239 217 207 213 223 230 234 236 237 240 241 241 239 240 242 242 246 248
329 303 284 273 267 262 253 237 212 213 212 248 255 268 282 307 288 292 272 245 198 187 194 198 206 212 217 227 216 219 215 207 211 222 229 237 243 247 243 241 245 247 244 250
4 327 282 268 262 259 254 248 241 237 245 257 267 242 256 270 283 287 259 239 203 192 193 200 210 211 205 213 223 224 218 218 227 231 230 226 234 238 244 243 242 243 243 250
8 13 16 282 265 259 250 243 240 244 242 250 252 235 242 254 231 236 226 210 211 207 203 208 209 212 207 208 214 214 233 233 235 244 241 233 231 229 226 226 232 239 252 253
23 19 22 32 58 246 226 225 231 229 216 225 229 219 217 229 235 223 215 215 201 209 215 211 222 221 197 180 175 172 180 181 192 206 219 223 230 241 249 254 255 256 251 248
25 25 21 23 40 63 136 107 122 200 207 205 204 195 187 202 199 200 207 195 180 178 180 175 175 181 185 179 182 187 181 149 151 169 189 205 217 230 239 245 247 245 244 244